| time (UTC) | temp F | wind direction | speed knots | gust knots | rain 1hr in | rain 24hr in | rain mn in | humidity % | barometer mb |
| 20260506033917 | 50 | 59 | 0.0 | 0.0 | 0.11 | 0.61 | 0.61 | 99 | |
| 20260506033414 | 50 | 59 | 0.0 | 0.0 | 0.10 | 0.60 | 0.60 | 99 | |
| 20260506032911 | 50 | 38 | 0.0 | 0.0 | 0.10 | 0.59 | 0.59 | 99 | |
| 20260506032408 | 50 | 37 | 0.0 | 0.0 | 0.10 | 0.58 | 0.58 | 99 | |
| 20260506031904 | 50 | 356 | 0.0 | 0.0 | 0.10 | 0.57 | 0.57 | 99 | |
| 20260506031402 | 50 | 43 | 0.0 | 0.0 | 0.08 | 0.55 | 0.55 | 99 | |
| 20260506030859 | 50 | 22 | 0.0 | 0.0 | 0.07 | 0.53 | 0.53 | 99 | |
| 20260506030357 | 50 | 76 | 0.0 | 0.0 | 0.07 | 0.52 | 0.52 | 99 | |
| 20260506025854 | 50 | 47 | 0.0 | 0.0 | 0.07 | 0.52 | 0.52 | 99 | |
| 20260506025350 | 50 | 303 | 0.0 | 0.0 | 0.06 | 0.51 | 0.51 | 99 | |
| 20260506024848 | 50 | 30 | 0.0 | 0.0 | 0.07 | 0.51 | 0.51 | 99 | |
| 20260506024345 | 50 | 23 | 0.0 | 0.0 | 0.07 | 0.50 | 0.50 | 99 | |
| 20260506023840 | 50 | 62 | 0.0 | 0.0 | 0.08 | 0.50 | 0.50 | 99 | |
| 20260506023337 | 50 | 62 | 0.0 | 0.0 | 0.07 | 0.49 | 0.49 | 99 | |
| 20260506022834 | 50 | 59 | 0.0 | 0.0 | 0.07 | 0.48 | 0.48 | 99 | |
| 20260506022332 | 50 | 79 | 0.0 | 0.0 | 0.08 | 0.48 | 0.48 | 99 | |
| 20260506021830 | 50 | 75 | 0.0 | 0.0 | 0.07 | 0.47 | 0.47 | 99 | |
| 20260506021326 | 49 | 67 | 0.0 | 0.0 | 0.08 | 0.47 | 0.47 | 99 | |
| 20260506020823 | 49 | 76 | 0.0 | 0.0 | 0.07 | 0.45 | 0.45 | 99 | |
| 20260506020321 | 49 | 62 | 0.0 | 0.0 | 0.08 | 0.45 | 0.45 | 99 | |
| 20260506015818 | 49 | 64 | 0.0 | 0.0 | 0.09 | 0.45 | 0.45 | 99 | |
| 20260506015316 | 50 | 64 | 0.0 | 0.0 | 0.08 | 0.44 | 0.44 | 99 | |
| 20260506014812 | 50 | 58 | 0.0 | 0.0 | 0.09 | 0.44 | 0.44 | 99 | |
| 20260506014309 | 50 | 71 | 0.0 | 0.0 | 0.09 | 0.43 | 0.43 | 99 | |
| 20260506013805 | 50 | 77 | 0.0 | 0.0 | 0.09 | 0.42 | 0.42 | 99 | |
| 20260506013303 | 50 | 76 | 0.0 | 0.0 | 0.10 | 0.41 | 0.41 | 99 | |
| 20260506012800 | 50 | 151 | 0.0 | 0.0 | 0.15 | 0.41 | 0.41 | 99 | |
| 20260506012257 | 50 | 76 | 0.0 | 0.0 | 0.21 | 0.40 | 0.40 | 99 | |
| 20260506011754 | 50 | 69 | 0.0 | 0.0 | 0.21 | 0.39 | 0.39 | 99 | |
| 20260506011250 | 50 | 150 | 0.0 | 0.9 | 0.20 | 0.38 | 0.38 | 99 | |
| 20260506010748 | 49 | 106 | 0.0 | 0.0 | 0.24 | 0.37 | 0.37 | 98 | |
| 20260506010245 | 49 | 57 | 0.0 | 0.0 | 0.23 | 0.36 | 0.36 | 98 | |
| 20260506005743 | 50 | 83 | 0.0 | 0.0 | 0.24 | 0.36 | 0.36 | 98 | |
| 20260506005239 | 50 | 73 | 0.0 | 0.0 | 0.23 | 0.35 | 0.35 | 98 | |
| 20260506004735 | 49 | 48 | 0.0 | 0.0 | 0.22 | 0.34 | 0.34 | 98 | |
| 20260506004233 | 49 | 42 | 0.0 | 0.0 | 0.21 | 0.33 | 0.33 | 98 | |
| 20260506003728 | 50 | 2 | 0.0 | 0.9 | 0.21 | 0.32 | 0.32 | 98 | |
| 20260506003226 | 50 | 354 | 0.9 | 0.9 | 0.15 | 0.26 | 0.26 | 98 | |
| 20260506002721 | 50 | 278 | 0.9 | 1.7 | 0.09 | 0.20 | 0.20 | 98 | |
| 20260506002218 | 50 | 287 | 0.9 | 0.9 | 0.08 | 0.19 | 0.19 | 98 | |
| 20260506001714 | 50 | 337 | 0.0 | 0.0 | 0.07 | 0.18 | 0.18 | 98 | |
| 20260506001211 | 50 | 337 | 0.9 | 0.9 | 0.02 | 0.13 | 0.13 | 98 | |
| 20260506000708 | 50 | 57 | 0.0 | 0.9 | 0.02 | 0.13 | 0.13 | 98 | |
| 20260506000206 | 50 | 355 | 0.9 | 0.9 | 0.02 | 0.12 | 0.12 | 98 | |
| 20260505235703 | 50 | 351 | 0.9 | 0.9 | 0.02 | 0.12 | 0.12 | 98 | |
| 20260505235201 | 50 | 344 | 0.9 | 0.9 | 0.04 | 0.12 | 0.12 | 97 | |
| 20260505234657 | 50 | 34 | 0.0 | 0.9 | 0.04 | 0.12 | 0.12 | 97 | |
| 20260505234154 | 50 | 118 | 0.0 | 0.0 | 0.04 | 0.11 | 0.11 | 97 | |
| 20260505233651 | 50 | 40 | 0.0 | 0.0 | 0.05 | 0.11 | 0.11 | 97 | |
| 20260505233149 | 50 | 320 | 0.9 | 0.9 | 0.06 | 0.11 | 0.11 | 97 | |
| 20260505232646 | 50 | 51 | 0.0 | 0.0 | 0.06 | 0.11 | 0.11 | 97 | |
| 20260505232144 | 51 | 279 | 0.9 | 1.7 | 0.08 | 0.11 | 0.11 | 97 | |
| 20260505231640 | 51 | 54 | 0.0 | 0.0 | 0.08 | 0.11 | 0.11 | 97 | |
| 20260505231139 | 51 | 276 | 1.7 | 1.7 | 0.08 | 0.11 | 0.11 | 97 | |
| 20260505230637 | 51 | 291 | 0.9 | 0.9 | 0.07 | 0.10 | 0.10 | 96 | |
| 20260505230133 | 51 | 335 | 0.9 | 0.9 | 0.08 | 0.10 | 0.10 | 96 | |
| 20260505225629 | 51 | 28 | 0.0 | 0.9 | 0.06 | 0.08 | 0.08 | 96 | |
| 20260505225125 | 51 | 347 | 0.0 | 0.9 | 0.06 | 0.08 | 0.08 | 96 | |
| 20260505224622 | 51 | 289 | 1.7 | 1.7 | 0.04 | 0.06 | 0.06 | 95 | |
| 20260505224119 | 52 | 293 | 0.9 | 1.7 | 0.04 | 0.06 | 0.06 | 95 | |
| 20260505223617 | 52 | 33 | 0.9 | 0.9 | 0.03 | 0.05 | 0.05 | 94 | |
| 20260505223113 | 54 | 271 | 6.1 | 7.0 | 0.02 | 0.04 | 0.04 | 93 | |
| 20260505222609 | 55 | 277 | 0.9 | 1.7 | 0.01 | 0.03 | 0.03 | 94 | |
| 20260505222105 | 55 | 319 | 1.7 | 2.6 | 0.01 | 0.03 | 0.03 | 93 | |
| 20260505221603 | 55 | 23 | 0.9 | 0.9 | 0.01 | 0.03 | 0.03 | 93 | |
| 20260505221059 | 56 | 292 | 0.0 | 0.0 | 0.01 | 0.03 | 0.03 | 93 | |
| 20260505220556 | 56 | 308 | 0.9 | 1.7 | 0.00 | 0.02 | 0.02 | 93 | |
| 20260505220054 | 56 | 333 | 0.9 | 1.7 | 0.00 | 0.02 | 0.02 | 92 | |
| 20260505215552 | 56 | 291 | 0.9 | 0.9 | 0.00 | 0.02 | 0.02 | 92 | |
| 20260505215049 | 56 | 347 | 1.7 | 1.7 | 0.00 | 0.02 | 0.02 | 92 | |
| 20260505214547 | 56 | 347 | 0.0 | 0.9 | 0.00 | 0.02 | 0.02 | 92 | |
| 20260505214044 | 57 | 331 | 1.7 | 1.7 | 0.00 | 0.02 | 0.02 | 91 | |
| 20260505213542 | 57 | 292 | 1.7 | 1.7 | 0.00 | 0.02 | 0.02 | 91 | |
| 20260505213038 | 57 | 287 | 1.7 | 1.7 | 0.00 | 0.02 | 0.02 | 91 | |
| 20260505212534 | 57 | 289 | 2.6 | 2.6 | 0.00 | 0.02 | 0.02 | 91 | |
| 20260505212032 | 58 | 297 | 1.7 | 1.7 | 0.00 | 0.02 | 0.02 | 90 | |
| 20260505211529 | 58 | 354 | 0.9 | 0.9 | 0.00 | 0.02 | 0.02 | 90 | |
| 20260505211025 | 58 | 318 | 1.7 | 1.7 | 0.00 | 0.02 | 0.02 | 90 | |
| 20260505210522 | 58 | 284 | 1.7 | 1.7 | 0.00 | 0.02 | 0.02 | 90 | |
| 20260505210020 | 58 | 275 | 2.6 | 2.6 | 0.01 | 0.02 | 0.02 | 90 | |
| 20260505205518 | 58 | 25 | 0.9 | 0.9 | 0.02 | 0.02 | 0.02 | 90 | |
| 20260505205015 | 58 | 31 | 0.0 | 0.0 | 0.02 | 0.02 | 0.02 | 89 | |
| 20260505204512 | 59 | 24 | 0.0 | 0.0 | 0.02 | 0.02 | 0.02 | 89 | |
| 20260505204009 | 59 | 327 | 0.0 | 0.9 | 0.02 | 0.02 | 0.02 | 88 | |
| 20260505203506 | 59 | 27 | 0.0 | 0.0 | 0.02 | 0.02 | 0.02 | 88 | |
| 20260505203003 | 59 | 296 | 0.9 | 0.9 | 0.02 | 0.02 | 0.02 | 88 | |
| 20260505202459 | 59 | 47 | 0.0 | 0.0 | 0.02 | 0.02 | 0.02 | 88 | |
| 20260505201954 | 59 | 56 | 0.0 | 0.0 | 0.02 | 0.02 | 0.02 | 88 | |
| 20260505201452 | 59 | 12 | 0.0 | 0.0 | 0.02 | 0.02 | 0.02 | 87 | |
| 20260505200949 | 60 | 113 | 0.9 | 0.9 | 0.02 | 0.02 | 0.02 | 87 | |
| 20260505200447 | 60 | 66 | 0.0 | 0.0 | 0.01 | 0.01 | 0.01 | 85 | |
| 20260505195942 | 61 | 52 | 0.0 | 0.0 | 0.00 | 0.00 | 0.00 | 81 | |
| 20260505195440 | 62 | 298 | 1.7 | 1.7 | 0.00 | 0.00 | 0.00 | 78 | |
| 20260505194937 | 63 | 333 | 1.7 | 2.6 | 0.00 | 0.00 | 0.00 | 76 | |
| 20260505194434 | 63 | 80 | 0.0 | 0.9 | 0.00 | 0.00 | 0.00 | 75 | |
| 20260505193934 | 62 | 307 | 0.9 | 0.9 | 0.00 | 0.00 | 0.00 | 75 | |
| 20260505193432 | 63 | 341 | 1.7 | 1.7 | 0.00 | 0.00 | 0.00 | 74 | |
| 20260505192930 | 63 | 65 | 0.0 | 0.0 | 0.00 | 0.00 | 0.00 | 74 | |
| 20260505192428 | 63 | 341 | 0.9 | 0.9 | 0.00 | 0.00 | 0.00 | 74 | |
| 20260505191925 | 63 | 68 | 0.0 | 0.0 | 0.00 | 0.00 | 0.00 | 74 | |
| 20260505191424 | 63 | 353 | 0.9 | 1.7 | 0.00 | 0.00 | 0.00 | 73 | |
| 20260505190920 | 63 | 259 | 0.9 | 1.7 | 0.00 | 0.00 | 0.00 | 72 | |
| 20260505190415 | 64 | 258 | 0.9 | 0.9 | 0.00 | 0.00 | 0.00 | 72 | |
| 20260505185911 | 64 | 280 | 0.9 | 1.7 | 0.00 | 0.00 | 0.00 | 71 | |
| 20260505185408 | 65 | 54 | 0.0 | 0.9 | 0.00 | 0.00 | 0.00 | 71 | |
| 20260505184904 | 65 | 274 | 1.7 | 2.6 | 0.00 | 0.00 | 0.00 | 70 | |
| 20260505184401 | 65 | 284 | 1.7 | 1.7 | 0.00 | 0.00 | 0.00 | 69 | |
| 20260505183858 | 65 | 214 | 0.9 | 1.7 | 0.00 | 0.00 | 0.00 | 70 | |
| 20260505183354 | 65 | 12 | 3.5 | 5.2 | 0.00 | 0.00 | 0.00 | 70 | |
| 20260505182846 | 65 | 310 | 2.6 | 5.2 | 0.00 | 0.00 | 0.00 | 70 | |
| 20260505182343 | 64 | 271 | 3.5 | 4.3 | 0.00 | 0.00 | 0.00 | 71 | |
| 20260505181839 | 64 | 327 | 2.6 | 4.3 | 0.00 | 0.00 | 0.00 | 71 | |
| 20260505181337 | 64 | 275 | 1.7 | 1.7 | 0.00 | 0.00 | 0.00 | 71 | |
| 20260505180833 | 65 | 284 | 2.6 | 4.3 | 0.00 | 0.00 | 0.00 | 70 | |
| 20260505180330 | 67 | 241 | 2.6 | 2.6 | 0.00 | 0.00 | 0.00 | 67 | |
| 20260505175826 | 67 | 34 | 0.0 | 0.0 | 0.00 | 0.00 | 0.00 | 65 | |
| 20260505175323 | 67 | 278 | 0.0 | 0.0 | 0.00 | 0.00 | 0.00 | 66 | |
| 20260505174819 | 67 | 184 | 0.0 | 0.9 | 0.00 | 0.00 | 0.00 | 65 | |
| 20260505174317 | 68 | 118 | 0.0 | 0.9 | 0.00 | 0.00 | 0.00 | 65 | |
| 20260505173813 | 68 | 347 | 0.0 | 0.9 | 0.00 | 0.00 | 0.00 | 65 | |
| 20260505173309 | 68 | 180 | 0.9 | 0.9 | 0.00 | 0.00 | 0.00 | 64 | |
| 20260505172807 | 68 | 275 | 0.9 | 0.9 | 0.00 | 0.00 | 0.00 | 63 | |
| 20260505172306 | 69 | 158 | 1.7 | 1.7 | 0.00 | 0.00 | 0.00 | 62 | |
| 20260505171758 | 69 | 303 | 0.0 | 0.9 | 0.00 | 0.00 | 0.00 | 62 | |
| 20260505171255 | 69 | 25 | 1.7 | 2.6 | 0.00 | 0.00 | 0.00 | 61 | |
| 20260505170752 | 70 | 293 | 1.7 | 1.7 | 0.00 | 0.00 | 0.00 | 60 | |
| 20260505170249 | 71 | 168 | 1.7 | 4.3 | 0.00 | 0.00 | 0.00 | 62 | |
| 20260505165744 | 71 | 153 | 2.6 | 5.2 | 0.00 | 0.00 | 0.00 | 59 | |
| 20260505165240 | 70 | 288 | 0.9 | 1.7 | 0.00 | 0.00 | 0.00 | 60 | |
| 20260505164736 | 68 | 333 | 0.9 | 0.9 | 0.00 | 0.00 | 0.00 | 64 | |
| 20260505164233 | 68 | 135 | 0.9 | 1.7 | 0.00 | 0.00 | 0.00 | 63 | |
| 20260505163731 | 68 | 163 | 1.7 | 2.6 | 0.00 | 0.00 | 0.00 | 63 | |
| 20260505163230 | 69 | 89 | 3.5 | 6.1 | 0.00 | 0.00 | 0.00 | 61 | |
| 20260505162727 | 70 | 148 | 0.0 | 0.9 | 0.00 | 0.00 | 0.00 | 62 | |
| 20260505162224 | 69 | 142 | 1.7 | 1.7 | 0.00 | 0.00 | 0.00 | 63 | |
| 20260505161720 | 70 | 109 | 1.7 | 2.6 | 0.00 | 0.00 | 0.00 | 63 | |
| 20260505161218 | 70 | 72 | 1.7 | 1.7 | 0.00 | 0.00 | 0.00 | 63 | |
| 20260505160715 | 70 | 181 | 1.7 | 1.7 | 0.00 | 0.00 | 0.00 | 63 | |
| 20260505160213 | 70 | 146 | 6.1 | 8.7 | 0.00 | 0.00 | 0.00 | 63 | |
| 20260505153152 | 66 | 179 | 1.7 | 2.6 | 0.00 | 0.00 | 0.00 | 70 | |
| 20260505152649 | 66 | 170 | 0.0 | 1.7 | 0.00 | 0.00 | 0.00 | 70 | |
| 20260505152145 | 66 | 45 | 0.0 | 0.9 | 0.00 | 0.00 | 0.00 | 70 | |
| 20260505151640 | 66 | 264 | 1.7 | 4.3 | 0.00 | 0.00 | 0.00 | 70 | |
| 20260505151138 | 68 | 11 | 2.6 | 2.6 | 0.00 | 0.00 | 0.00 | 69 | |
| 20260505150633 | 67 | 135 | 0.0 | 0.0 | 0.00 | 0.00 | 0.00 | 70 | |
| 20260505150131 | 66 | 129 | 2.6 | 4.3 | 0.00 | 0.00 | 0.00 | 70 | |
| 20260505140559 | 63 | 73 | 0.0 | 0.0 | 0.00 | 0.00 | 0.00 | 75 | |
| 20260505125013 | 63 | 162 | 1.7 | 2.6 | 0.00 | 0.00 | 0.00 | 72 | |
| 20260505124509 | 63 | 120 | 0.9 | 0.9 | 0.00 | 0.00 | 0.00 | 72 | |
| 20260505124005 | 63 | 61 | 0.9 | 0.9 | 0.00 | 0.00 | 0.00 | 71 | |
| 20260505123502 | 63 | 164 | 1.7 | 2.6 | 0.00 | 0.00 | 0.00 | 70 | |
| 20260505122958 | 64 | 206 | 1.7 | 1.7 | 0.00 | 0.00 | 0.00 | 71 | |
| 20260505122455 | 64 | 183 | 1.7 | 2.6 | 0.00 | 0.00 | 0.00 | 70 | |
| 20260505121952 | 64 | 116 | 0.9 | 1.7 | 0.00 | 0.00 | 0.00 | 70 | |
| 20260505121449 | 64 | 123 | 1.7 | 5.2 | 0.00 | 0.00 | 0.00 | 69 | |
| 20260505120945 | 64 | 212 | 3.5 | 6.1 | 0.00 | 0.00 | 0.00 | 69 | |
| 20260505120442 | 64 | 101 | 0.9 | 0.9 | 0.00 | 0.00 | 0.00 | 69 | |
| 20260505115940 | 64 | 159 | 2.6 | 2.6 | 0.00 | 0.00 | 0.00 | 69 | |
| 20260505115437 | 64 | 158 | 3.5 | 5.2 | 0.00 | 0.00 | 0.00 | 69 | |
| 20260505114936 | 64 | 343 | 1.7 | 1.7 | 0.00 | 0.00 | 0.00 | 69 | |
| 20260505114431 | 64 | 152 | 2.6 | 2.6 | 0.00 | 0.00 | 0.00 | 69 | |
| 20260505113928 | 64 | 250 | 0.0 | 0.9 | 0.00 | 0.00 | 0.00 | 70 | |
| 20260505113425 | 64 | 159 | 2.6 | 4.3 | 0.00 | 0.00 | 0.00 | 70 | |
| 20260505112920 | 64 | 156 | 0.9 | 1.7 | 0.00 | 0.00 | 0.00 | 69 | |
| 20260505112418 | 64 | 113 | 0.0 | 0.0 | 0.00 | 0.00 | 0.00 | 70 | |
| 20260505111914 | 64 | 79 | 1.7 | 1.7 | 0.00 | 0.00 | 0.00 | 69 | |
| 20260505111409 | 63 | 53 | 0.0 | 0.0 | 0.00 | 0.00 | 0.00 | 70 | |
| 20260505110906 | 64 | 186 | 0.9 | 0.9 | 0.00 | 0.00 | 0.00 | 70 | |
| 20260505110403 | 64 | 79 | 2.6 | 5.2 | 0.00 | 0.00 | 0.00 | 69 | |
| 20260505101833 | 64 | 196 | 1.7 | 2.6 | 0.00 | 0.00 | 0.00 | 69 | |
| 20260505101328 | 64 | 134 | 0.9 | 0.9 | 0.00 | 0.00 | 0.00 | 70 | |
| 20260505100824 | 64 | 104 | 1.7 | 2.6 | 0.00 | 0.00 | 0.00 | 69 | |
| 20260505100321 | 64 | 290 | 0.9 | 1.7 | 0.00 | 0.00 | 0.00 | 70 | |
| 20260505095816 | 63 | 95 | 1.7 | 1.7 | 0.00 | 0.00 | 0.00 | 69 | |
| 20260505095315 | 64 | 145 | 0.0 | 0.9 | 0.00 | 0.00 | 0.00 | 69 | |
| 20260505094810 | 64 | 201 | 1.7 | 4.3 | 0.00 | 0.00 | 0.00 | 69 | |
| 20260505094307 | 64 | 148 | 4.3 | 6.1 | 0.00 | 0.00 | 0.00 | 69 | |
| 20260505093803 | 64 | 216 | 0.9 | 1.7 | 0.00 | 0.00 | 0.00 | 70 | |
| 20260505093301 | 63 | 123 | 0.9 | 1.7 | 0.00 | 0.00 | 0.00 | 70 | |
| 20260505092757 | 63 | 128 | 0.9 | 1.7 | 0.00 | 0.00 | 0.00 | 70 | |
| 20260505092255 | 64 | 128 | 3.5 | 6.1 | 0.00 | 0.00 | 0.00 | 69 | |
| 20260505091753 | 64 | 125 | 1.7 | 1.7 | 0.00 | 0.00 | 0.00 | 69 | |
| 20260505091250 | 64 | 87 | 0.0 | 0.0 | 0.00 | 0.00 | 0.00 | 69 | |
| 20260505090748 | 64 | 129 | 4.3 | 7.0 | 0.00 | 0.00 | 0.00 | 69 | |
| 20260505090246 | 64 | 154 | 2.6 | 5.2 | 0.00 | 0.00 | 0.00 | 70 | |
| 20260505085743 | 64 | 213 | 0.0 | 0.9 | 0.00 | 0.00 | 0.00 | 70 | |
| 20260505085242 | 64 | 150 | 0.9 | 1.7 | 0.00 | 0.00 | 0.00 | 70 | |
| 20260505084738 | 64 | 114 | 0.0 | 0.9 | 0.00 | 0.00 | 0.00 | 70 | |
| 20260505084238 | 64 | 191 | 0.9 | 1.7 | 0.00 | 0.00 | 0.00 | 70 | |
| 20260505083734 | 64 | 91 | 0.0 | 0.9 | 0.00 | 0.00 | 0.00 | 69 | |
| 20260505083231 | 64 | 138 | 1.7 | 2.6 | 0.00 | 0.00 | 0.00 | 70 | |
| 20260505082727 | 64 | 166 | 0.9 | 1.7 | 0.00 | 0.00 | 0.00 | 69 | |
| 20260505082224 | 64 | 149 | 0.9 | 1.7 | 0.00 | 0.00 | 0.00 | 70 | |
| 20260505081720 | 64 | 292 | 0.9 | 1.7 | 0.00 | 0.00 | 0.00 | 69 | |
| 20260505081218 | 64 | 37 | 1.7 | 2.6 | 0.00 | 0.00 | 0.00 | 69 | |
| 20260505080714 | 64 | 171 | 1.7 | 2.6 | 0.00 | 0.00 | 0.00 | 69 | |
| 20260505080210 | 64 | 172 | 0.9 | 2.6 | 0.00 | 0.00 | 0.00 | 69 | |
| 20260505075706 | 64 | 95 | 0.0 | 0.9 | 0.00 | 0.00 | 0.00 | 69 | |
| 20260505075204 | 64 | 137 | 0.9 | 1.7 | 0.00 | 0.00 | 0.00 | 69 | |
| 20260505074700 | 64 | 219 | 0.9 | 1.7 | 0.00 | 0.00 | 0.00 | 69 | |
| 20260505074157 | 64 | 139 | 4.3 | 6.1 | 0.00 | 0.00 | 0.00 | 69 | |
| 20260505073655 | 64 | 63 | 3.5 | 5.2 | 0.00 | 0.00 | 0.00 | 69 | |
| 20260505073153 | 64 | 149 | 2.6 | 2.6 | 0.00 | 0.00 | 0.00 | 69 | |
| 20260505072648 | 64 | 166 | 2.6 | 4.3 | 0.00 | 0.00 | 0.00 | 70 | |
| 20260505072145 | 63 | 185 | 1.7 | 1.7 | 0.00 | 0.00 | 0.00 | 70 | |
| 20260505071640 | 63 | 149 | 0.0 | 0.9 | 0.00 | 0.00 | 0.00 | 71 | |
| 20260505071139 | 63 | 175 | 2.6 | 5.2 | 0.00 | 0.00 | 0.00 | 70 | |
| 20260505070635 | 63 | 123 | 0.9 | 0.9 | 0.00 | 0.00 | 0.00 | 71 | |
| 20260505070132 | 63 | 101 | 0.0 | 0.0 | 0.00 | 0.00 | 0.00 | 71 | |
| 20260505065628 | 63 | 171 | 5.2 | 7.0 | 0.00 | 0.00 | 0.00 | 71 | |
| 20260505065124 | 63 | 123 | 1.7 | 1.7 | 0.00 | 0.00 | 0.00 | 71 | |
| 20260505064621 | 63 | 123 | 0.0 | 0.0 | 0.00 | 0.00 | 0.00 | 71 | |
| 20260505064120 | 63 | 86 | 2.6 | 4.3 | 0.00 | 0.00 | 0.00 | 71 | |
| 20260505063617 | 63 | 89 | 0.0 | 0.0 | 0.00 | 0.00 | 0.00 | 71 | |
| 20260505063113 | 63 | 193 | 1.7 | 2.6 | 0.00 | 0.00 | 0.00 | 71 | |
| 20260505062609 | 63 | 130 | 0.0 | 0.9 | 0.00 | 0.00 | 0.00 | 71 | |
| 20260505062107 | 63 | 128 | 0.9 | 0.9 | 0.00 | 0.00 | 0.00 | 72 | |
| 20260505061603 | 63 | 149 | 1.7 | 1.7 | 0.00 | 0.00 | 0.00 | 72 | |
| 20260505061102 | 63 | 127 | 0.0 | 0.9 | 0.00 | 0.00 | 0.00 | 72 | |
| 20260505060559 | 62 | 123 | 0.9 | 0.9 | 0.00 | 0.00 | 0.00 | 74 | |
| 20260505060055 | 62 | 79 | 0.0 | 0.0 | 0.00 | 0.00 | 0.00 | 73 | |
| 20260505055550 | 63 | 50 | 0.0 | 0.0 | 0.00 | 0.00 | 0.00 | 72 | |
| 20260505055048 | 63 | 12 | 0.0 | 0.9 | 0.00 | 0.00 | 0.00 | 71 | |
| 20260505054545 | 63 | 282 | 0.9 | 0.9 | 0.00 | 0.00 | 0.00 | 72 | |
| 20260505054043 | 63 | 88 | 0.0 | 0.0 | 0.00 | 0.00 | 0.00 | 73 | |
| 20260505053539 | 64 | 114 | 0.9 | 0.9 | 0.00 | 0.00 | 0.00 | 72 | |
| 20260505053036 | 64 | 130 | 0.0 | 0.0 | 0.00 | 0.00 | 0.00 | 70 | |
| 20260505052533 | 64 | 160 | 5.2 | 7.8 | 0.00 | 0.00 | 0.00 | 68 | |
| 20260505052031 | 64 | 162 | 0.9 | 0.9 | 0.00 | 0.00 | 0.00 | 69 | |
| 20260505051527 | 64 | 118 | 0.0 | 0.0 | 0.00 | 0.00 | 0.00 | 69 | |
| 20260505051026 | 64 | 230 | 1.7 | 1.7 | 0.00 | 0.00 | 0.00 | 68 | |
| 20260505050524 | 64 | 139 | 0.0 | 0.0 | 0.00 | 0.00 | 0.00 | 69 | |
| 20260505041451 | 64 | 147 | 2.6 | 5.2 | 0.00 | 0.00 | 0.00 | 66 | |
| 20260505040948 | 64 | 195 | 1.7 | 4.3 | 0.00 | 0.00 | 0.00 | 66 | |
| 20260505040446 | 64 | 121 | 0.0 | 0.0 | 0.00 | 0.00 | 0.00 | 66 | |
| 20260505035943 | 64 | 142 | 2.6 | 2.6 | 0.00 | 0.00 | 0.00 | 65 | |
| 20260505035439 | 64 | 154 | 4.3 | 6.1 | 0.00 | 0.00 | 0.00 | 65 | |
| 20260505034936 | 65 | 154 | 1.7 | 4.3 | 0.00 | 0.00 | 0.00 | 66 | |
| 20260505034432 | 64 | 104 | 0.9 | 0.9 | 0.00 | 0.00 | 0.00 | 65 |